GEFSSE_500_meanwind_000.txt.gz
Wind_Speed
15 17 18 18 19 21 21 19 16 17 16 15 15 14 11 10 9 9 8 10 10 11 13 14 15 16 16 17 17 17 17 18 18 18 18 19 21 22 22 21 20 18 16
13 16 19 18 20 22 20 18 17 17 16 16 16 13 11 9 9 10 9 11 12 13 14 15 16 17 18 18 18 18 19 20 20 21 21 22 24 24 23 23 23 21 20
13 15 16 16 17 16 15 13 12 12 12 14 14 12 11 11 12 13 13 14 16 16 16 17 18 18 19 19 19 19 20 21 22 23 23 24 25 25 26 26 26 26 25
13 13 12 12 13 12 10 9 9 10 10 11 12 13 13 14 14 15 16 17 18 18 18 18 18 18 18 18 18 19 20 20 22 24 24 24 25 25 27 28 28 28 29
11 11 11 11 12 14 14 12 11 9 10 10 10 12 13 15 15 14 15 16 17 18 20 19 18 19 19 20 20 21 23 23 24 25 26 26 28 28 29 30 31 32 34
11 12 12 9 11 13 12 11 12 11 10 9 8 9 10 11 10 9 9 11 13 15 16 17 18 19 21 23 24 25 26 26 26 27 27 28 31 30 32 33 36 35 36
13 11 8 6 8 8 6 6 10 13 12 10 9 8 8 9 8 8 10 12 13 15 16 16 18 20 21 24 25 26 28 29 29 29 30 31 32 32 33 35 37 34 36
13 8 2 6 7 8 8 11 12 12 13 12 10 9 9 11 11 13 15 16 17 17 16 16 18 20 22 25 26 26 27 29 30 30 32 33 32 34 35 35 34 34 35
14 11 4 2 5 8 10 13 11 10 11 11 10 11 12 14 17 18 19 19 19 19 19 20 21 23 24 26 27 27 28 30 31 30 31 32 33 34 34 33 33 33 33
15 11 8 6 3 8 11 11 10 10 10 12 12 13 14 17 19 21 21 19 19 20 21 22 23 24 25 27 28 29 29 31 32 33 34 34 35 35 35 34 34 34 34
12 12 11 10 6 3 10 14 14 13 13 14 15 16 17 19 21 21 19 18 18 20 21 22 23 25 25 27 29 30 31 32 34 35 36 36 37 36 37 36 36 36 36
12 12 11 11 10 5 5 13 14 12 13 15 16 17 19 20 19 18 17 17 17 18 18 19 20 22 23 24 26 27 29 30 33 34 35 35 36 37 38 39 38 39 38
11 12 12 12 11 9 6 5 9 13 16 18 18 19 21 22 21 19 19 19 18 18 18 20 21 22 23 24 25 26 27 29 32 34 36 36 36 37 38 39 41 41 41
9 9 9 10 10 10 10 12 14 18 19 18 21 22 21 20 18 16 17 18 18 18 20 21 22 24 24 24 25 27 30 31 33 35 37 37 38 38 39 41 43 45 46
9 8 8 7 6 8 11 13 13 13 13 15 19 20 20 20 18 19 20 18 17 18 20 21 23 24 24 25 28 32 35 36 37 39 41 41 42 44 44 44 45 48 49
8 7 8 7 6 7 9 10 11 12 12 14 17 18 18 18 18 22 22 20 19 20 22 23 25 26 28 31 35 37 39 41 42 44 46 48 48 49 50 49 47 49 51
8 7 8 8 6 6 9 10 11 12 13 15 17 18 19 20 21 23 22 21 21 23 26 28 30 32 35 37 39 41 44 47 49 50 50 53 55 55 55 54 53 54 56
12 10 9 8 5 6 9 12 13 14 15 17 17 18 18 18 19 20 21 21 22 24 27 30 34 38 41 42 43 45 48 52 53 54 55 57 58 59 60 61 62 61 62
14 13 12 9 10 11 13 15 16 17 19 20 22 22 22 22 22 22 22 22 21 25 31 33 36 40 43 45 47 50 54 57 58 58 60 61 61 62 64 67 69 67 67
16 16 14 13 14 16 16 17 18 21 23 24 26 26 27 27 27 28 28 28 29 34 37 39 40 40 44 46 49 53 57 60 60 63 64 65 66 68 68 69 70 69 68
19 19 17 19 20 20 22 22 22 25 26 26 27 28 31 31 33 35 36 35 34 37 40 42 43 45 48 48 50 54 58 60 63 63 65 65 69 71 71 68 63 61 60
27 25 24 24 24 25 27 28 28 29 31 30 31 32 35 36 36 36 39 39 40 43 44 45 48 50 52 53 55 57 59 61 63 64 66 69 70 66 62 56 51 49 47
30 29 30 30 28 30 30 31 32 33 37 37 36 37 39 41 41 40 43 46 48 49 49 50 54 54 54 57 58 59 61 63 64 66 69 66 60 51 51 51 47 46 45
32 33 34 32 31 32 33 34 36 38 40 42 42 42 44 47 46 47 49 50 52 53 54 56 56 56 56 58 60 62 62 62 60 56 53 49 45 43 44 45 44 45 47
36 37 36 36 34 33 35 38 39 40 42 45 45 48 53 55 52 53 51 46 45 50 53 54 54 56 59 60 61 62 60 56 51 47 44 44 43 42 43 45 47 49 51
37 39 39 39 36 35 37 38 40 43 45 49 49 52 57 53 50 47 47 47 50 52 54 56 57 58 58 59 60 59 56 51 48 47 45 45 44 42 46 50 52 53 54

GEFSSE_500_meanwind_006.txt.gz
Wind_Speed
15 15 16 19 20 20 21 22 23 22 21 20 21 21 20 19 17 16 15 15 14 13 13 13 13 13 13 14 14 15 15 15 16 16 17 18 19 18 18 18 19 19 18
16 17 16 16 17 18 20 19 19 20 20 21 22 22 21 19 17 15 14 14 14 14 14 16 16 16 16 17 17 17 17 18 18 19 19 20 20 20 20 21 22 22 21
15 16 18 16 13 12 13 13 14 16 17 18 19 19 18 17 15 14 14 14 14 15 16 17 18 17 17 18 18 19 20 21 22 22 22 21 21 22 22 23 23 24 23
12 13 15 15 13 12 10 9 9 11 13 14 14 15 16 16 15 15 15 15 15 16 17 18 19 19 19 19 20 20 22 24 25 25 24 22 23 24 25 25 26 26 26
10 11 13 15 16 15 11 9 9 11 11 11 13 14 15 15 15 15 16 16 16 17 18 19 20 21 22 22 22 22 23 24 25 26 25 24 26 27 27 27 28 28 29
11 11 12 14 16 15 11 9 9 10 10 11 12 13 13 13 13 14 14 14 13 12 12 14 16 18 19 20 21 22 23 24 26 27 28 27 28 29 30 31 31 31 32
10 10 11 11 10 9 8 7 7 8 8 9 11 11 12 12 12 12 11 11 11 12 13 14 15 17 17 18 19 21 23 24 25 26 27 26 27 29 30 30 31 32 33
10 10 11 11 8 7 8 8 8 8 9 10 12 13 13 12 12 12 12 14 15 16 17 17 17 17 17 18 19 21 23 24 25 26 24 23 25 26 27 29 29 30 31
11 12 12 12 11 8 7 9 10 11 12 12 12 12 13 12 13 14 16 17 18 20 20 20 20 21 22 22 23 24 24 25 25 26 22 22 25 25 24 25 27 27 29
10 11 12 13 12 9 7 9 12 13 12 11 12 13 14 14 15 16 18 20 20 20 19 20 21 23 24 24 25 26 25 26 26 26 21 23 25 25 25 26 27 28 30
10 11 11 14 14 11 8 9 11 12 12 12 13 14 16 17 18 18 18 19 19 19 18 19 20 20 21 22 22 23 23 24 25 24 22 24 25 26 27 28 30 31 31
12 12 12 13 13 13 12 8 8 11 13 14 15 16 17 17 17 18 18 18 18 18 19 20 19 19 19 19 20 21 21 23 25 24 23 25 26 27 29 30 31 32 33
16 15 14 14 14 14 15 12 9 9 12 14 15 16 16 17 18 19 18 16 16 16 17 19 19 19 19 20 20 21 23 26 27 27 23 24 28 30 31 32 34 35 36
22 21 17 17 17 17 17 16 14 12 12 13 14 16 17 17 18 19 19 18 19 19 20 19 18 17 19 21 21 22 24 27 28 29 28 28 31 34 35 37 38 39 41
25 24 20 19 19 19 18 18 17 16 15 15 17 18 18 18 19 20 21 21 21 22 21 20 21 20 22 23 25 26 27 29 31 33 34 35 35 36 38 41 43 44 45
27 25 22 20 20 20 20 19 19 18 18 16 16 16 18 18 19 19 19 20 21 22 22 22 23 25 24 24 26 27 28 30 33 35 37 38 38 40 42 44 46 49 51
28 27 24 23 21 20 19 21 21 20 19 19 18 19 20 21 23 23 21 22 24 24 26 27 28 28 27 27 29 31 33 34 35 36 38 40 43 44 46 47 50 52 54
27 28 27 25 23 22 21 23 24 24 22 22 21 22 24 23 25 25 24 26 28 28 29 31 31 32 33 36 37 38 39 40 41 42 43 46 48 51 53 54 55 57 59
26 28 29 26 25 25 24 24 24 25 24 24 25 26 29 28 29 29 28 30 31 32 33 34 35 36 38 41 43 45 47 47 48 51 54 56 57 58 59 60 61 63 65
26 28 29 28 28 28 27 26 26 27 27 26 27 29 31 32 33 33 32 35 36 37 38 38 40 42 43 44 46 48 51 53 56 59 61 64 65 65 64 64 65 66 67
28 28 29 31 32 34 33 32 32 32 32 32 33 34 34 35 35 36 37 39 41 43 44 44 46 48 50 52 53 54 54 57 60 62 63 66 68 68 67 66 67 68 69
30 30 31 33 36 38 39 39 39 37 36 36 38 38 39 39 38 37 39 41 43 47 49 51 53 55 57 58 59 59 60 60 61 62 64 66 68 69 69 69 70 70 70
33 34 33 35 39 41 42 44 44 43 41 40 41 42 43 43 42 42 43 45 48 50 51 54 55 58 58 59 60 61 61 60 61 65 68 69 69 68 68 70 71 70 64
35 35 35 38 40 43 45 46 47 47 46 45 46 46 46 45 45 45 46 48 51 52 53 55 54 55 55 56 57 58 60 63 66 67 67 66 65 66 68 69 68 64 60
34 33 36 41 44 46 47 47 48 49 49 49 48 46 46 47 49 49 49 50 51 52 53 54 54 55 56 58 59 62 64 66 66 66 64 64 66 67 68 65 60 58 57
33 34 37 42 45 47 47 47 48 49 49 48 47 47 49 51 51 50 51 51 52 53 53 54 55 55 57 60 63 66 66 65 64 64 65 68 69 69 67 63 58 56 56

GEFSSE_500_meanwind_012.txt.gz
Wind_Speed
13 12 12 13 14 15 16 17 18 20 20 20 20 20 19 19 19 18 18 18 18 18 17 17 15 15 16 16 15 16 15 16 16 16 17 16 16 17 17 17 17 17 18
13 12 12 14 15 16 17 18 20 22 23 23 23 23 22 21 22 21 20 19 19 19 18 17 17 17 18 18 18 18 18 18 17 18 19 19 19 19 20 20 20 20 20
9 10 11 13 15 16 17 18 20 21 22 22 22 22 21 21 21 20 19 18 18 17 17 17 18 19 20 20 20 20 20 19 18 19 20 21 21 21 22 22 22 22 22
8 8 9 10 11 13 15 16 18 19 19 19 19 19 18 18 18 18 17 17 17 17 18 19 20 20 21 22 22 22 22 21 20 20 22 22 22 22 23 23 22 22 22
10 8 8 8 9 11 13 16 17 18 18 17 17 16 16 16 16 16 17 17 18 19 21 21 21 21 22 23 24 24 25 24 22 22 24 24 23 23 23 24 24 24 24
10 9 8 7 7 8 11 14 17 17 17 17 16 15 14 14 14 15 16 18 19 21 21 20 18 17 18 19 21 22 23 22 21 22 24 25 25 25 25 25 27 27 27
11 11 9 7 7 7 8 10 11 12 13 14 13 12 12 12 12 13 15 17 18 18 17 16 16 16 17 19 20 21 21 19 18 20 22 24 26 27 27 26 26 25 26
11 11 10 9 8 7 7 8 7 8 8 9 9 10 11 12 13 15 16 17 17 17 17 18 20 20 20 21 22 24 24 20 19 20 22 24 26 26 25 25 24 24 23
11 10 10 10 10 9 8 8 8 9 9 10 10 11 12 13 14 15 16 17 18 19 20 22 23 23 22 22 24 26 27 25 23 24 24 25 26 26 25 25 24 24 24
11 11 10 9 9 9 9 9 8 9 10 10 11 12 13 14 15 16 18 20 21 22 23 24 24 23 23 23 25 27 28 27 26 26 26 26 26 27 26 26 26 25 26
12 12 11 10 9 8 8 10 9 9 9 9 11 12 14 15 16 18 19 20 20 20 21 21 21 22 22 23 25 26 27 26 25 26 25 25 26 26 26 26 26 26 27
13 14 12 11 10 8 8 9 10 10 9 8 9 11 13 14 15 15 16 17 18 18 18 18 18 19 21 23 24 25 26 25 25 25 25 26 26 27 27 28 28 28 28
13 13 13 13 12 11 10 9 10 11 10 9 9 10 11 12 12 12 12 13 14 14 14 15 17 18 20 20 20 22 24 25 24 24 25 26 27 28 29 30 31 31 31
13 14 14 15 14 13 12 11 11 11 11 11 11 10 10 10 9 8 8 9 10 10 11 12 14 15 17 18 19 21 24 26 26 25 26 28 29 30 31 32 33 34 34
16 15 14 15 15 15 15 14 13 14 14 15 14 11 10 10 11 12 11 11 12 12 12 13 14 15 16 18 20 21 24 27 28 28 28 29 30 31 32 33 33 34 35
19 18 16 16 15 14 14 14 14 16 16 17 17 15 14 14 15 16 16 16 16 17 18 19 19 19 20 21 22 24 25 28 31 33 35 35 36 36 37 37 38 39 40
24 22 20 20 19 17 15 13 13 14 16 17 19 19 18 18 19 20 20 21 22 23 24 25 26 26 27 27 28 29 30 32 35 38 40 42 43 43 44 44 45 46 47
26 25 24 23 24 23 19 17 15 16 18 20 23 24 25 26 26 27 27 27 28 29 31 32 32 33 34 34 35 36 37 38 40 43 45 47 48 50 50 51 51 53 54
28 27 28 27 28 29 27 23 21 20 21 24 26 28 29 30 31 32 33 33 34 34 35 36 38 39 40 41 41 42 43 45 47 48 50 52 53 55 56 57 58 59 60
30 32 33 32 31 32 32 30 27 26 26 28 30 32 32 33 34 36 37 37 37 38 39 40 41 43 44 46 47 47 48 49 50 51 52 53 54 56 57 59 60 61 62
34 35 36 36 35 34 34 32 32 31 31 33 35 36 35 36 38 40 42 41 41 41 42 44 45 46 47 48 49 50 50 51 51 52 52 53 54 56 57 58 59 60 61
37 37 37 38 39 38 36 35 35 35 36 39 40 39 38 39 41 44 45 45 45 45 45 46 47 49 50 51 51 51 51 52 53 54 54 56 57 58 60 61 62 63 65
38 37 38 40 41 40 39 38 37 38 40 42 43 42 41 42 45 46 47 46 46 45 46 48 49 50 52 53 52 51 52 52 53 55 57 58 59 60 62 64 65 66 67
36 37 39 41 42 42 40 39 39 39 41 43 43 42 43 44 45 46 47 47 47 48 49 49 50 51 51 51 51 51 52 53 54 56 59 61 62 63 65 66 66 67 67
36 38 39 41 41 41 40 40 39 38 39 42 43 43 45 45 46 47 48 49 49 50 50 51 52 51 50 51 53 55 56 58 58 58 59 61 63 64 65 66 66 66 65
36 39 41 40 39 38 38 38 38 38 39 41 42 44 46 46 48 49 49 49 49 50 52 53 53 53 54 56 58 59 59 59 59 59 58 58 60 62 64 65 67 67 66

GEFSSE_500_meanwind_018.txt.gz
Wind_Speed
8 9 10 10 12 12 12 11 10 11 12 13 13 14 15 15 16 16 16 16 16 15 15 15 15 14 13 13 12 12 12 13 14 15 16 17 17 17 16 15 15 15 15
6 6 7 8 9 10 11 11 11 11 12 13 14 15 16 17 17 18 17 17 17 16 16 15 15 14 14 14 14 14 14 14 15 16 16 17 18 18 17 16 16 16 16
7 7 7 7 7 7 8 9 9 10 10 11 12 13 14 15 16 16 16 16 16 15 15 15 14 14 14 15 15 16 16 17 17 17 17 17 18 18 18 17 17 18 18
8 8 8 7 6 5 6 6 7 8 9 10 11 12 13 14 14 13 13 14 14 14 15 15 15 16 17 17 17 18 18 19 20 19 19 19 20 20 20 19 19 19 19
8 8 8 7 7 6 5 4 5 6 7 9 10 11 12 13 13 12 12 12 13 14 15 16 17 18 19 19 18 18 19 20 21 21 21 22 22 22 22 21 21 20 20
9 9 9 9 8 7 5 4 4 4 5 7 8 9 10 10 10 10 10 11 12 13 15 16 18 18 17 16 15 16 17 18 19 20 20 21 21 21 21 21 22 22 22
10 11 11 10 9 8 6 5 5 5 5 5 6 6 7 7 8 8 9 11 12 14 15 16 17 17 16 15 16 17 19 19 20 20 20 20 20 20 21 22 22 22 22
13 13 13 12 11 9 7 6 5 5 5 5 5 5 6 7 8 9 11 12 13 14 15 16 17 18 18 18 19 19 19 20 20 20 21 22 22 23 23 23 23 23 22
15 15 15 13 12 10 7 5 5 5 5 5 5 6 7 8 9 10 11 13 14 15 16 18 19 19 20 19 19 19 19 18 19 20 21 22 23 23 23 24 24 24 23
16 16 16 15 13 11 8 6 5 5 5 5 5 6 7 8 9 11 12 14 15 17 18 19 19 20 19 18 17 17 18 18 18 18 18 19 19 20 20 21 22 22 23
16 16 16 16 14 12 10 8 6 6 5 5 5 6 7 9 10 12 13 15 16 16 17 17 18 18 17 16 16 16 17 17 17 17 18 18 19 20 21 21 22 23 23
15 15 16 16 15 14 12 10 8 6 5 5 5 6 7 8 10 11 12 13 14 14 14 15 15 15 15 16 17 18 18 17 17 17 18 19 20 21 22 23 24 24 25
13 14 16 16 16 15 14 12 11 9 7 6 6 6 8 9 9 10 11 11 12 12 12 13 14 15 15 16 16 17 17 18 18 19 19 20 22 23 24 25 26 27 28
12 13 16 18 17 15 14 14 14 13 11 8 7 7 7 8 8 9 10 11 12 12 12 13 15 16 16 17 17 17 18 19 20 21 22 24 25 26 27 28 29 30 30
14 15 17 19 19 18 16 15 15 15 14 11 8 7 6 6 7 8 9 10 11 11 12 13 15 17 18 19 20 21 22 23 24 25 26 28 29 30 31 32 33 35 36
15 17 18 20 21 21 19 18 17 16 16 14 12 10 9 9 10 11 12 13 13 14 15 16 18 19 20 22 23 24 25 27 29 30 31 32 33 34 35 36 37 38 39
17 18 19 21 21 22 22 20 19 18 18 18 16 15 14 14 15 17 19 20 20 20 20 21 22 23 24 25 26 28 29 30 31 33 34 35 37 38 39 39 40 41 41
18 20 21 22 23 24 24 23 22 21 21 21 21 20 20 20 21 23 25 27 27 27 27 26 26 27 27 28 30 32 33 34 36 37 38 39 41 42 42 42 42 42 42
19 22 24 26 27 27 26 25 24 24 24 26 26 26 26 27 27 28 30 32 34 34 32 31 31 31 31 32 33 35 37 39 40 40 41 42 43 44 45 45 44 44 44
21 24 27 29 30 30 29 28 28 28 28 29 30 31 32 32 32 33 34 35 37 36 34 32 31 32 33 34 36 39 41 42 42 43 44 45 45 46 46 46 47 48 49
23 26 28 30 32 32 31 31 32 32 30 30 31 31 32 34 34 35 35 35 34 31 28 28 29 32 34 37 39 41 43 43 44 45 46 47 47 48 49 50 51 52 53
25 27 29 31 33 33 33 34 34 34 31 30 29 30 30 32 33 33 33 33 30 30 30 32 34 36 37 39 40 42 43 44 45 47 48 49 50 51 53 54 56 57 58
26 27 30 33 35 35 36 36 36 37 35 32 30 26 27 29 29 29 30 32 34 37 37 37 38 39 41 42 42 43 44 46 48 49 50 52 54 55 57 58 60 61 62
28 30 33 36 38 37 38 37 38 39 36 33 28 25 24 25 26 27 31 35 37 38 39 40 42 43 44 45 45 47 48 50 51 52 53 55 57 59 60 61 61 62 63
33 34 37 40 40 39 40 39 39 38 35 32 26 22 21 23 26 30 33 36 39 41 43 44 45 46 47 48 49 50 51 53 55 56 56 58 59 61 62 62 62 63 64
37 39 42 41 40 40 40 39 38 37 33 29 24 23 24 26 30 34 37 40 42 45 47 47 48 49 50 52 54 56 57 58 60 60 60 60 60 61 62 63 64 65 67

GEFSSE_500_meanwind_024.txt.gz
Wind_Speed
5 5 5 6 8 9 10 10 11 10 10 9 9 9 9 9 10 10 10 10 9 9 8 7 7 6 6 7 7 7 7 7 7 7 8 9 10 10 11 12 12 13 13
3 2 3 3 4 6 7 9 10 10 10 9 9 9 9 9 10 10 10 10 10 9 8 7 6 6 6 7 8 8 8 9 9 9 10 10 11 12 12 13 13 14 14
2 2 1 1 2 3 5 6 8 8 9 8 8 7 7 7 8 8 8 9 9 8 6 6 5 6 7 8 9 9 10 11 11 12 12 13 13 14 14 14 15 15 15
4 3 3 2 1 1 3 4 5 6 7 7 7 6 6 6 7 7 7 7 7 6 5 5 6 7 9 10 11 12 12 13 13 13 14 15 15 16 16 16 17 17 17
7 6 5 4 3 1 1 3 4 5 5 6 6 5 6 6 6 6 6 6 6 5 5 6 7 9 10 11 12 12 12 13 13 13 13 14 15 16 17 17 18 18 19
9 9 8 7 4 2 1 1 3 4 4 4 4 4 4 5 5 5 5 5 5 5 5 6 7 8 9 10 10 10 11 12 12 13 14 15 15 16 16 17 17 17 18
11 11 10 9 7 5 3 1 1 2 3 3 4 4 4 4 5 5 6 6 6 6 6 7 7 8 9 10 11 11 13 14 15 15 16 16 16 16 16 16 16 17 17
12 12 11 10 9 7 4 2 1 1 2 3 4 4 5 6 6 7 7 8 7 7 8 8 9 9 10 11 12 13 14 15 16 17 17 17 17 17 17 17 17 17 18
11 11 11 11 10 8 6 5 3 3 3 4 5 6 7 7 8 8 9 9 9 9 10 10 11 11 12 12 13 13 14 14 15 16 16 16 16 16 16 16 16 16 16
10 10 10 10 10 9 8 6 6 5 5 5 6 7 8 8 9 10 11 11 11 11 12 12 12 12 12 11 11 11 12 12 12 13 13 13 13 13 13 13 14 14 15
7 8 9 9 9 9 8 8 7 7 6 7 7 8 9 10 10 11 12 13 13 12 12 12 11 11 10 10 9 10 10 11 11 11 11 12 12 13 13 14 14 15 16
5 6 8 9 9 9 8 8 8 8 8 8 8 8 9 10 11 12 13 13 13 12 12 11 11 10 10 10 10 10 10 10 11 11 12 13 14 14 15 16 16 17 18
5 7 8 10 10 10 10 10 10 10 10 10 10 10 10 11 11 12 13 13 13 13 12 12 11 11 11 11 11 11 12 12 13 14 14 15 16 17 18 19 20 21 22
6 8 11 12 13 13 13 13 14 14 14 14 13 13 13 12 12 13 13 13 13 13 13 13 14 14 13 13 13 13 14 14 15 16 16 18 19 20 22 23 24 25 26
8 10 12 14 15 16 16 16 17 17 17 16 16 16 16 15 15 14 15 15 15 15 15 15 16 16 16 16 16 16 16 16 17 17 18 19 20 22 24 25 27 29 30
9 11 13 15 16 17 18 18 19 20 20 19 19 19 19 19 19 18 18 18 19 18 18 18 19 20 21 21 21 21 21 20 20 21 21 22 23 25 27 28 30 32 33
12 13 15 16 17 18 19 20 21 22 23 23 23 24 24 24 24 24 24 23 24 24 24 24 24 25 27 27 27 26 25 24 24 24 25 27 28 29 31 33 34 36 37
15 16 17 18 19 20 21 21 22 23 25 26 27 27 28 29 30 31 30 30 30 31 31 31 30 30 30 30 29 28 27 26 26 27 28 30 32 34 35 36 38 39 40
19 20 20 21 22 22 23 23 25 26 28 30 31 32 33 34 35 36 36 37 38 37 36 34 32 32 32 31 30 29 29 28 28 28 30 33 35 37 39 39 41 42 43
23 24 24 24 24 25 25 26 28 30 33 35 37 38 38 38 38 40 40 41 41 39 37 33 30 29 27 27 27 27 27 27 29 30 32 34 36 39 42 43 44 45 46
27 28 28 28 28 28 29 30 32 34 37 39 39 40 38 38 39 38 40 40 39 38 35 31 26 23 22 22 24 25 28 30 30 32 34 37 39 41 43 45 47 49 50
31 31 31 31 31 31 32 33 36 38 41 44 45 44 41 38 36 34 34 34 34 33 30 24 21 22 23 25 25 27 28 30 31 34 36 39 41 44 47 49 51 53 54
32 33 33 33 34 34 35 36 38 40 44 45 46 42 38 35 31 30 29 31 30 27 24 21 21 23 25 26 28 30 32 35 36 38 40 44 46 49 52 53 55 56 57
31 33 33 34 35 36 37 38 40 42 45 46 43 40 37 31 28 25 25 26 24 23 22 22 24 26 29 30 33 35 38 41 44 47 48 50 51 53 55 56 58 59 60
32 33 34 35 36 38 39 40 42 43 46 46 44 40 33 27 25 23 23 24 23 23 24 26 28 31 33 36 37 40 42 45 48 51 54 56 58 58 58 59 60 62 63
32 33 35 36 38 40 41 42 43 44 44 44 43 39 33 30 27 24 24 25 26 28 29 31 33 36 38 40 42 45 47 50 52 54 56 58 59 60 61 62 63 65 66

GEFSSE_500_meanwind_030.txt.gz
Wind_Speed
7 9 8 8 9 9 10 10 11 11 11 11 12 12 12 12 11 11 12 12 12 11 12 12 12 12 11 10 9 9 8 7 7 7 7 8 8 9 9 9 10 10 11
6 7 7 7 7 8 9 10 11 11 12 13 13 14 14 14 13 13 13 13 13 12 12 12 13 13 12 11 10 9 9 9 8 9 9 9 10 10 11 11 12 12 14
5 5 6 6 6 6 7 8 9 10 11 12 13 14 14 14 13 13 13 13 13 12 12 12 13 12 11 10 10 9 10 10 10 11 11 11 12 12 13 13 14 14 15
5 4 4 4 5 5 6 7 7 8 9 10 11 11 12 12 12 12 11 11 11 12 12 12 12 11 10 10 10 10 11 11 12 13 13 13 13 13 14 14 15 16 16
5 3 3 3 3 4 4 5 5 6 6 7 8 9 9 10 10 10 10 10 10 11 11 11 11 11 10 10 10 11 12 12 12 13 13 12 12 12 13 14 14 15 16
5 4 3 2 2 1 1 2 3 3 5 5 6 7 7 8 8 8 8 8 9 10 10 10 10 10 10 10 10 11 11 11 12 13 12 12 12 12 13 14 15 15 16
6 5 4 3 3 2 2 2 1 2 3 4 5 6 6 6 7 7 7 7 8 8 9 10 10 10 10 10 10 10 11 12 13 13 12 12 13 14 15 15 16 16 16
5 5 5 5 5 5 4 4 3 3 3 4 5 6 6 6 7 7 7 7 8 9 10 11 10 11 11 11 11 12 13 14 15 13 12 14 14 15 15 15 16 16 17
6 5 6 6 7 7 6 5 4 4 4 5 5 6 7 8 9 9 8 9 9 10 11 12 12 12 13 13 13 13 14 15 16 15 13 15 14 14 15 15 15 15 16
5 5 5 6 7 6 6 5 5 5 5 6 7 8 9 9 9 10 10 10 11 12 14 15 15 14 14 14 14 14 15 16 16 14 13 15 14 13 13 14 14 14 14
3 3 4 5 5 5 5 5 6 6 7 7 8 9 10 10 11 11 11 12 13 14 15 16 16 15 15 14 14 14 15 16 15 13 13 13 12 12 12 13 13 13 14
2 0 2 3 5 6 6 7 8 8 8 9 10 10 11 11 12 12 13 13 14 15 16 16 16 16 15 15 14 14 16 17 15 13 14 15 13 13 13 13 14 14 15
4 3 3 5 6 8 9 9 10 10 10 11 11 12 13 13 13 14 14 15 16 16 17 17 16 16 16 15 16 16 17 19 15 14 16 16 16 16 16 16 17 17 18
6 6 6 8 9 11 12 12 12 13 13 13 13 14 15 16 16 17 17 18 18 18 18 18 17 16 16 17 17 18 19 21 18 16 17 18 18 19 19 19 20 20 21
8 8 9 10 12 14 15 16 16 16 16 16 16 17 19 20 20 20 20 20 21 21 21 21 20 19 19 19 20 20 21 23 22 19 20 21 22 22 22 23 23 23 24
9 10 11 12 14 16 18 19 20 21 20 20 21 22 24 26 26 26 25 25 25 25 25 24 24 23 23 22 22 23 24 25 26 26 25 25 26 26 26 27 27 27 28
11 12 13 15 17 19 21 22 23 24 25 25 25 27 29 30 30 31 32 32 30 30 30 30 28 27 27 27 26 26 27 28 29 31 31 30 29 29 30 31 31 31 31
13 13 15 17 18 20 22 24 25 26 27 28 29 30 30 31 34 35 36 36 34 33 33 33 32 31 32 31 30 30 29 30 31 33 34 34 31 30 31 33 33 34 34
14 15 17 19 19 22 24 26 27 28 29 30 32 32 33 34 36 37 37 38 36 35 33 34 34 33 33 33 31 30 28 28 29 31 32 33 33 32 32 32 32 34 36
16 16 19 22 22 24 27 28 29 30 31 32 33 35 34 36 38 37 37 36 34 33 33 33 33 33 32 33 31 28 27 26 26 26 27 28 28 29 31 31 32 34 36
19 19 20 24 26 27 29 30 31 32 32 34 35 36 36 37 37 37 35 34 34 32 30 28 29 30 30 29 28 25 24 24 25 25 26 28 30 31 33 36 37 38 40
22 22 24 27 29 31 32 32 33 33 33 34 35 36 37 38 37 37 34 33 32 31 28 26 25 24 25 25 25 25 26 26 27 28 29 31 33 34 35 38 41 44 46
27 27 28 29 32 33 34 34 34 34 34 35 37 38 38 38 38 35 33 31 31 30 29 27 26 25 24 24 25 26 25 26 27 29 31 33 36 38 41 44 47 49 52
31 32 32 32 34 35 35 35 35 35 36 37 38 39 39 39 39 35 33 31 31 31 30 29 28 27 27 26 26 27 28 31 32 34 36 38 40 43 46 49 51 54 57
35 35 35 35 36 36 36 36 35 36 37 38 39 40 40 40 39 36 34 32 31 31 31 30 30 30 30 30 30 32 33 35 37 40 42 44 47 50 52 54 57 59 61
38 38 38 37 36 36 36 36 36 37 38 40 41 40 41 41 38 37 35 34 33 33 31 31 32 32 32 33 34 36 38 40 42 45 47 49 52 55 58 60 62 64 65

GEFSSE_500_meanwind_036.txt.gz
Wind_Speed
8 7 7 8 8 9 10 10 11 11 10 10 11 11 11 11 11 11 12 12 13 13 13 13 13 14 14 14 14 13 13 13 12 11 10 10 10 10 10 10 10 10 10
8 7 7 8 8 8 9 9 10 11 11 11 11 11 11 12 13 13 14 14 14 14 14 15 15 15 15 15 14 14 14 13 12 11 11 11 11 11 11 11 11 11 12
8 7 7 7 7 7 7 8 8 9 10 10 10 10 11 12 13 14 14 15 15 15 15 15 15 15 15 15 14 14 13 13 13 12 11 12 12 13 12 12 12 13 13
8 7 7 6 6 5 5 6 6 7 7 7 8 8 9 10 11 12 13 14 14 14 14 14 14 14 15 14 14 13 13 13 13 12 12 13 14 14 14 14 14 14 15
7 6 6 5 5 4 4 4 5 5 5 5 5 5 6 7 9 10 11 12 12 12 12 12 12 13 13 14 13 13 13 13 13 13 13 14 15 16 16 15 15 15 16
5 4 4 3 3 3 3 4 4 4 3 3 2 2 3 4 6 7 9 10 10 10 10 10 11 11 12 13 13 13 13 13 13 13 14 14 14 16 16 16 16 16 17
4 3 2 1 2 3 4 4 4 4 3 2 1 1 1 2 4 5 7 8 9 9 9 10 10 11 13 14 15 14 13 14 14 14 14 15 14 14 15 16 16 17 17
2 2 1 2 3 4 5 5 5 4 3 3 2 3 3 3 4 6 7 8 9 9 10 11 12 13 14 16 17 16 14 15 16 16 16 16 14 14 15 16 16 16 17
3 3 4 5 5 6 7 6 6 5 5 5 5 5 5 5 6 7 8 10 11 11 12 12 14 15 17 18 19 17 16 17 18 17 17 16 16 15 16 16 16 16 16
5 5 5 6 6 7 7 7 6 6 6 6 6 6 6 6 7 8 9 10 12 13 13 14 15 17 18 20 20 18 16 17 17 17 17 17 16 15 16 16 16 16 16
5 4 5 5 6 6 6 6 6 6 6 6 6 5 6 6 7 8 9 11 13 14 15 15 16 17 19 20 20 17 16 16 16 16 16 16 16 16 15 15 16 16 17
5 4 4 4 4 5 5 5 5 5 6 5 5 5 5 6 6 7 9 11 13 14 15 16 17 18 20 21 20 18 16 16 16 16 16 16 16 16 16 16 17 18 18
5 5 3 2 2 3 4 4 5 5 6 5 5 5 6 7 6 7 10 12 13 15 16 17 18 19 20 21 20 18 17 16 17 17 17 18 18 18 18 18 19 20 20
6 5 4 2 2 2 3 3 4 5 5 5 5 6 7 7 8 8 10 12 13 15 17 18 18 19 20 20 20 19 18 18 18 19 19 20 20 21 21 21 22 23 24
7 6 5 4 3 1 1 2 3 4 5 5 5 6 7 7 8 9 12 12 14 16 17 18 16 16 18 19 20 21 21 21 21 21 21 22 22 23 24 25 26 26 27
9 7 6 5 5 3 2 2 3 4 5 6 6 6 7 8 9 11 12 14 15 16 18 18 17 15 17 18 19 20 21 22 22 22 23 23 24 26 27 28 29 30 31
11 9 8 7 7 6 5 5 5 6 7 7 8 8 8 10 10 11 13 14 15 16 17 17 16 15 16 17 19 20 22 23 23 23 24 26 27 28 29 30 32 32 33
13 11 10 10 9 8 7 7 6 7 8 9 11 11 11 11 12 12 14 14 15 16 16 16 15 14 14 16 19 20 22 24 25 25 25 26 27 28 30 31 32 33 34
16 13 13 12 11 10 10 10 10 10 11 12 13 14 14 14 14 14 15 16 16 17 16 15 13 14 13 14 17 19 21 23 24 26 25 25 26 27 28 29 31 33 34
17 17 15 14 13 13 13 14 14 15 16 16 16 17 17 17 17 18 18 18 18 17 16 15 14 14 14 14 15 16 17 18 20 22 23 23 24 26 27 30 31 33 35
18 17 15 15 15 15 17 19 20 21 22 22 21 22 22 21 21 22 21 21 20 19 17 16 15 15 16 15 15 15 16 18 20 22 23 24 25 27 28 31 33 35 37
20 17 17 15 17 19 21 24 25 26 27 26 26 26 26 25 24 24 25 23 23 22 19 18 17 17 17 17 17 17 18 19 20 21 24 26 28 29 32 34 36 38 41
21 22 22 20 21 23 25 26 29 30 31 31 31 30 30 28 27 27 28 27 26 23 21 21 20 20 21 20 21 21 22 22 24 25 27 29 31 33 36 38 41 43 45
26 25 24 23 25 26 28 30 32 33 34 34 34 33 31 30 29 30 30 30 27 25 24 24 24 24 24 25 25 25 26 27 28 29 32 34 36 38 41 44 46 49 51
29 28 28 28 30 30 32 34 35 36 36 36 36 34 32 31 31 31 32 30 28 27 27 27 28 28 28 28 29 30 31 32 33 34 36 38 41 43 46 49 51 54 56
32 32 32 34 35 36 37 37 36 37 37 36 36 36 35 34 33 32 32 31 31 30 30 31 31 32 32 33 34 35 36 37 38 40 41 43 45 48 51 54 56 59 61

GEFSSE_500_meanwind_042.txt.gz
Wind_Speed
6 7 8 10 11 11 10 9 8 6 5 4 4 4 5 6 6 7 8 9 10 11 12 13 13 13 13 14 14 14 13 13 12 11 10 10 9 9 10 10 11 11 11
6 7 8 9 10 10 9 8 7 6 6 5 5 5 5 6 7 8 9 9 10 11 12 13 14 14 14 14 14 13 13 12 12 11 11 10 10 10 11 11 12 13 13
7 7 7 8 9 9 8 7 6 5 5 4 4 5 5 6 6 7 7 8 9 9 10 11 12 13 13 13 13 13 12 12 11 11 11 11 11 12 13 13 13 14 14
7 6 6 7 7 7 6 6 5 4 3 3 3 4 4 4 4 5 5 6 7 8 8 9 10 10 11 11 11 11 11 11 11 11 11 12 12 13 14 15 15 15 16
6 5 6 6 5 5 5 5 5 4 3 2 2 2 2 2 3 3 4 4 5 6 7 7 8 8 9 9 10 10 10 10 10 11 11 12 12 13 14 15 15 16 16
5 5 5 4 4 5 5 5 5 4 4 3 2 1 0 1 1 2 3 3 5 6 6 7 7 7 8 9 10 10 11 11 11 11 11 12 12 13 13 14 15 16 16
4 4 4 3 4 4 5 5 5 6 5 4 3 3 2 2 2 2 3 3 4 6 7 8 8 8 9 9 10 11 12 12 12 12 12 13 13 13 13 13 13 14 15
4 4 4 4 5 6 6 7 7 7 6 6 5 4 3 2 2 2 2 3 5 6 8 9 9 9 9 10 11 12 13 13 13 14 14 14 14 14 14 14 13 14 15
4 5 6 6 7 8 9 9 9 8 8 7 6 5 4 3 2 1 2 3 5 7 9 10 10 10 10 10 11 12 13 13 14 14 15 15 15 15 14 14 14 15 15
5 6 7 8 9 10 10 10 10 9 8 7 6 5 3 2 0 1 2 4 6 8 9 10 11 11 11 11 11 12 13 13 14 14 14 15 15 15 16 15 15 15 16
5 6 7 9 10 10 10 10 10 9 8 7 6 5 3 1 1 2 3 5 7 8 10 11 12 12 12 12 12 13 13 13 14 14 15 15 16 16 16 16 16 16 17
6 6 7 8 9 10 10 10 9 9 8 7 6 5 3 2 2 3 4 5 7 9 10 12 13 13 12 12 13 13 14 14 14 14 15 16 16 16 17 18 18 18 19
6 6 7 8 8 9 9 9 9 9 8 7 6 5 4 4 4 4 5 6 8 9 11 13 13 13 12 12 12 13 14 15 15 15 15 16 17 18 19 19 20 20 21
6 7 7 8 8 8 9 9 9 9 8 7 7 6 6 6 5 5 6 7 8 9 11 12 13 13 12 11 11 12 14 16 16 16 17 17 18 19 20 21 22 22 24
7 8 8 9 9 9 9 9 9 9 9 8 8 8 7 7 7 7 8 9 9 10 11 12 12 13 13 12 11 12 13 15 16 17 18 19 20 21 22 23 24 25 26
9 10 10 11 11 10 10 10 10 10 9 9 9 8 8 8 8 9 9 10 11 12 13 12 13 14 14 13 11 11 12 13 15 17 19 20 22 23 24 25 26 27 28
12 12 12 13 12 12 11 11 11 11 10 10 10 9 9 9 9 10 11 12 12 13 13 13 13 14 14 13 12 12 13 14 16 17 19 21 23 24 25 27 28 29 30
14 14 14 14 13 14 13 13 12 12 11 11 11 11 11 12 12 12 13 14 14 15 15 15 15 15 15 14 14 13 13 15 16 18 20 22 23 24 26 27 28 29 31
16 17 15 16 16 16 16 15 14 14 14 14 14 14 15 15 16 16 17 17 17 17 17 17 17 17 17 16 15 15 15 16 16 18 19 20 22 23 25 26 28 29 30
17 19 19 18 18 18 18 18 17 17 17 17 17 18 19 19 19 20 20 21 21 21 20 19 20 20 19 19 18 18 18 18 18 19 20 21 23 24 26 27 28 29 31
17 16 16 18 19 20 20 19 19 20 21 21 22 22 22 23 23 23 24 24 25 24 23 23 23 22 21 21 21 21 21 21 22 22 23 24 25 27 28 29 31 32 35
16 15 14 15 18 21 21 21 23 23 23 23 23 24 25 25 26 27 28 28 28 27 26 25 25 24 24 23 24 25 25 25 26 26 28 29 30 31 32 34 35 37 39
17 16 16 16 18 21 22 23 24 25 26 25 24 25 26 27 28 29 29 28 28 28 27 27 28 25 25 25 25 27 28 29 30 31 32 34 35 36 37 38 40 42 44
19 19 19 19 19 21 23 25 26 26 26 27 28 27 28 29 30 30 30 30 29 29 29 28 27 27 26 26 28 29 30 32 33 35 36 38 39 41 41 42 44 46 48
23 23 23 23 24 25 27 29 29 29 30 31 30 30 29 29 29 31 32 32 30 29 29 29 28 28 28 29 30 31 32 34 36 38 39 41 42 43 45 46 49 51 53
26 26 25 26 26 28 30 31 32 32 33 33 33 32 31 30 30 32 33 31 30 30 30 31 31 30 30 31 32 33 34 36 38 40 41 43 45 46 48 50 52 54 56

GEFSSE_500_meanwind_048.txt.gz
Wind_Speed
7 7 7 7 7 6 7 7 8 8 8 8 7 6 5 4 4 3 3 2 2 2 2 3 4 4 5 5 5 5 5 5 5 5 5 6 7 8 8 9 9 10 10
8 8 8 8 7 7 8 8 8 9 9 8 8 7 6 6 5 4 4 4 3 4 4 4 5 5 5 5 5 5 4 4 4 5 5 6 7 8 9 9 10 10 11
8 8 8 8 8 8 8 9 9 9 9 9 8 8 7 6 6 5 5 4 4 4 4 5 5 5 4 4 4 4 4 4 4 5 6 6 7 8 9 10 11 11 12
9 9 8 8 8 8 9 9 10 10 10 9 9 8 7 7 6 6 5 5 5 5 5 5 5 5 4 4 4 4 4 4 5 6 6 7 8 9 10 11 12 13 13
9 9 8 8 8 8 9 10 10 11 11 10 9 8 8 7 6 6 5 5 5 5 5 5 5 5 5 5 5 5 5 5 6 7 7 8 9 10 10 11 12 13 13
9 9 8 8 8 8 9 10 11 11 11 11 10 9 8 7 6 6 5 5 4 4 4 4 5 5 6 7 7 7 7 7 8 8 9 10 10 11 11 12 12 13 13
9 9 9 8 8 9 10 11 11 11 11 11 10 9 8 7 6 6 5 4 4 3 4 4 5 6 7 8 9 9 9 9 10 10 11 11 11 12 12 12 12 12 13
9 9 9 9 9 9 10 11 12 12 12 11 10 9 8 7 6 5 4 4 3 3 4 5 6 8 9 10 10 10 11 11 12 12 12 12 12 13 13 12 12 12 12
9 10 9 9 10 10 11 12 12 12 11 11 10 9 8 6 5 5 4 3 2 3 4 6 7 9 10 11 11 12 12 13 13 12 13 13 13 13 12 12 12 12 13
10 10 10 10 11 11 12 12 12 11 11 10 10 9 7 6 5 4 3 3 3 4 5 7 8 10 12 12 12 12 13 13 13 13 13 13 13 12 12 12 13 12 13
10 11 11 11 12 12 12 12 12 11 11 10 9 8 8 7 6 4 4 3 4 5 7 8 10 11 13 13 13 13 13 13 14 13 13 13 12 12 12 12 13 13 13
10 12 12 11 12 12 12 12 11 11 10 10 9 9 8 7 6 5 5 5 5 6 8 10 11 12 13 13 13 13 13 13 13 13 13 13 13 12 12 13 13 14 15
11 12 12 12 12 12 12 11 11 10 10 10 10 10 10 9 8 7 7 7 7 8 9 11 12 13 14 14 14 14 13 13 13 13 13 13 13 13 13 14 14 15 16
11 11 11 11 12 11 11 11 10 10 10 11 11 11 11 11 10 9 9 9 9 9 11 12 13 14 14 14 14 14 13 13 13 13 13 13 13 14 14 15 16 17 18
12 12 12 11 11 11 11 11 11 11 11 11 12 12 12 12 12 11 11 11 11 12 13 13 14 15 15 15 14 14 14 14 13 13 13 14 14 14 15 16 17 18 19
14 13 13 12 11 11 12 11 11 12 12 13 13 14 14 14 14 14 14 14 14 14 15 15 15 15 16 15 15 15 14 15 14 14 14 15 15 16 17 18 19 19 20
15 15 14 14 13 12 13 13 13 13 14 14 15 15 16 16 17 17 17 17 17 17 18 18 18 18 18 18 17 17 17 16 16 16 16 16 17 17 18 19 20 20 21
17 16 16 15 14 14 14 15 15 15 15 16 16 17 18 19 19 20 21 21 21 21 21 21 22 21 21 20 20 19 19 19 18 17 18 18 18 19 19 20 21 21 23
19 19 19 18 17 16 17 17 17 17 17 18 19 19 21 22 24 24 25 25 26 26 26 26 25 25 24 23 22 21 21 21 20 20 21 21 20 21 22 22 23 25 25
21 21 22 21 21 20 19 19 19 19 20 20 21 22 24 26 28 29 29 30 30 30 29 29 28 27 27 25 24 23 23 23 24 24 24 24 24 25 25 26 27 28 29
24 23 23 24 24 23 21 21 21 22 23 24 25 25 27 29 31 32 32 32 31 31 31 29 28 28 29 27 26 25 26 26 27 28 28 28 28 28 29 30 31 33 34
27 25 25 25 26 25 25 25 26 26 26 27 28 28 30 32 34 35 35 34 34 32 30 29 29 28 27 28 28 28 28 28 29 30 30 30 31 32 33 34 36 37 38
29 27 26 27 27 27 28 29 28 28 28 29 30 31 33 34 35 35 34 33 32 30 29 29 29 29 27 26 27 27 28 30 31 32 33 34 34 35 37 38 40 41 42
31 29 29 29 29 29 31 31 30 30 31 32 33 33 34 35 35 35 33 32 31 29 29 29 30 29 28 27 28 29 30 31 33 34 35 36 38 39 40 42 43 44 45
34 33 31 32 32 32 33 33 33 33 33 34 35 35 35 35 36 34 33 32 31 30 30 29 29 29 28 29 31 32 33 34 35 36 37 39 40 42 43 44 45 46 47
34 33 34 35 33 33 34 35 36 37 36 36 35 36 36 36 36 37 35 33 31 30 29 30 31 31 31 31 33 34 35 36 37 39 41 42 43 44 45 46 47 49 50

GEFSSE_500_meanwind_054.txt.gz
Wind_Speed
10 11 10 10 10 10 9 9 9 10 10 10 11 11 11 11 10 10 9 9 8 8 8 8 8 7 7 8 8 8 8 8 8 8 8 8 7 7 6 6 7 7 8
11 12 12 12 12 12 11 11 10 11 11 11 12 12 12 11 11 10 10 9 9 8 8 8 8 8 7 8 8 8 8 9 9 8 8 8 7 7 7 7 7 8 8
13 13 13 13 13 13 13 12 12 12 12 12 12 12 12 12 11 10 10 9 9 8 8 7 7 7 7 7 8 8 9 9 9 8 8 8 8 8 8 7 8 8 9
15 14 14 14 14 14 14 14 13 12 12 12 12 12 12 12 11 10 9 8 7 7 6 6 6 6 7 7 8 8 8 9 9 8 8 9 9 9 9 8 9 9 9
17 16 15 15 15 15 15 14 13 12 12 12 12 12 11 10 10 9 8 7 6 5 5 5 5 5 6 6 7 8 9 9 9 9 9 9 10 10 9 9 9 9 10
17 17 16 16 16 16 15 14 13 12 12 12 12 11 10 9 8 8 7 6 5 4 4 4 5 5 6 6 7 8 9 9 10 10 10 10 10 10 10 10 10 10 10
16 16 16 16 16 16 15 14 13 12 12 11 11 11 10 9 7 6 5 5 4 4 4 4 5 5 6 7 8 8 9 9 10 10 10 11 11 11 11 11 11 10 10
14 15 15 16 16 16 15 14 13 12 11 11 11 10 9 8 7 5 5 5 5 4 4 5 5 6 7 8 9 9 9 9 10 9 10 11 11 11 11 11 11 11 10
13 14 14 15 16 16 15 14 13 12 11 11 11 10 9 7 6 5 5 5 5 5 5 5 6 6 8 9 9 9 9 9 9 9 9 10 10 11 11 11 11 11 11
12 13 14 14 15 15 14 13 12 12 11 11 11 10 9 7 6 5 5 5 6 6 6 6 6 8 9 10 10 10 10 10 9 8 9 9 10 10 10 11 11 11 11
12 13 13 14 15 14 13 13 12 12 12 11 11 10 8 7 6 6 6 6 7 7 7 7 8 9 10 10 10 10 11 10 9 8 9 9 9 9 10 10 10 11 11
12 12 13 14 14 13 13 12 12 12 12 11 10 9 8 7 7 7 7 8 8 9 9 9 9 10 11 11 11 12 12 11 9 8 10 10 10 10 10 10 11 11 12
12 12 12 13 13 13 13 12 12 11 11 11 10 9 9 8 8 8 9 9 10 10 10 11 11 12 13 13 13 13 13 12 10 10 10 10 11 10 10 11 12 12 12
12 12 12 12 13 13 13 12 11 11 11 10 10 10 10 9 9 9 10 10 11 12 12 13 14 14 15 16 15 15 15 14 12 11 11 11 11 12 12 12 12 13 13
13 12 12 12 12 12 13 12 11 11 11 10 10 11 11 11 11 11 11 12 13 13 14 15 16 17 18 18 18 17 17 16 16 13 13 13 14 14 13 13 14 14 15
14 12 12 13 13 13 13 13 12 12 12 11 11 11 11 11 12 12 13 14 15 16 17 18 19 20 21 22 22 21 20 19 19 17 16 16 16 16 15 15 16 16 17
14 13 13 13 14 14 14 14 13 13 13 13 13 13 13 13 14 15 15 17 18 19 20 22 23 23 24 25 25 24 23 23 22 21 19 18 18 18 18 18 18 19 19
14 13 14 15 15 15 15 15 15 15 15 15 15 15 15 16 16 17 18 19 21 22 24 25 26 27 28 28 27 26 26 26 25 24 22 21 22 22 21 21 21 21 22
17 15 16 16 16 17 17 17 17 17 17 17 17 17 18 19 20 20 21 22 23 25 27 28 29 30 30 30 30 29 29 29 28 27 25 23 24 24 24 24 25 25 26
21 19 18 18 18 19 19 19 19 19 20 20 21 21 21 22 23 23 24 25 26 27 29 31 31 31 31 32 31 30 30 29 29 28 28 27 27 27 27 27 28 30 30
23 20 19 20 20 20 20 21 21 22 23 24 25 25 25 26 26 27 27 27 28 29 30 31 32 32 31 31 31 30 30 29 28 28 28 29 29 30 30 31 32 33 34
26 23 21 21 21 21 21 23 25 26 27 27 28 29 29 29 29 29 30 31 32 32 32 31 30 31 32 32 30 30 30 30 29 29 29 30 30 32 33 34 35 36 37
26 24 23 23 23 23 23 23 26 28 29 29 30 31 32 33 33 32 33 34 35 35 32 31 30 31 31 31 31 29 30 30 29 28 29 30 31 33 35 36 38 39 41
27 26 24 24 25 26 25 26 27 28 30 31 33 35 36 34 34 35 34 36 37 36 33 30 29 31 32 30 28 29 30 30 31 31 32 33 34 36 37 39 41 42 44
29 28 27 27 28 28 29 29 31 32 33 34 35 36 37 37 37 36 38 38 37 37 34 32 30 29 30 29 28 29 31 32 34 35 35 36 38 39 40 42 44 46 47
30 31 30 30 31 31 31 32 34 35 37 37 37 38 38 38 36 36 38 38 37 36 35 33 32 32 32 32 32 33 33 34 36 38 40 40 41 42 43 45 47 50 51

GEFSSE_500_meanwind_060.txt.gz
Wind_Speed
6 7 7 7 8 9 9 10 9 9 9 8 8 9 9 9 10 10 10 10 10 10 9 9 9 9 8 8 8 8 8 8 8 8 8 8 8 7 6 5 5 5 5
5 6 7 8 9 10 11 11 11 11 10 9 9 9 10 10 10 10 11 10 10 10 9 8 8 8 7 7 7 7 7 7 7 7 7 7 7 6 6 5 5 5 5
7 7 8 9 10 11 12 13 13 12 11 10 10 10 10 10 10 11 11 10 9 9 8 8 7 6 6 6 6 6 6 6 6 6 6 7 6 6 6 6 5 5 6
10 9 9 10 11 12 13 13 13 13 12 12 11 10 10 10 10 10 10 9 8 8 7 6 5 5 5 5 5 6 6 6 6 6 7 7 7 7 7 7 6 6 6
12 11 10 10 11 12 13 13 14 14 13 13 11 10 10 10 10 9 8 8 7 6 5 4 4 4 4 4 5 5 5 5 6 7 7 7 7 7 8 8 8 8 8
11 11 10 10 11 12 13 14 14 14 14 13 11 10 10 9 8 8 7 6 6 5 4 3 3 3 3 4 5 5 5 6 7 7 8 8 8 8 9 9 9 9 9
9 10 11 11 11 12 13 13 14 14 14 12 11 10 9 9 8 7 6 5 5 4 3 3 2 3 3 4 5 5 5 6 7 7 8 8 8 8 9 9 10 9 9
8 9 10 11 11 12 13 13 13 13 13 12 11 11 9 8 7 6 6 5 4 4 3 3 3 3 3 4 5 5 5 6 7 7 8 8 8 8 9 9 9 9 9
8 8 10 10 11 12 13 13 13 13 13 12 12 11 9 8 7 6 6 5 4 4 4 3 3 3 4 4 5 5 5 6 7 8 8 8 8 9 9 8 9 9 9
8 9 10 10 11 12 13 13 14 13 13 13 12 11 10 8 7 7 6 5 4 4 4 4 4 4 4 5 5 5 6 7 7 7 8 8 8 9 9 8 9 9 9
10 10 10 11 12 12 13 13 13 13 13 13 12 11 10 9 8 7 7 6 5 5 5 5 5 5 5 5 6 6 6 7 8 8 8 9 9 10 10 9 10 10 9
10 10 10 11 12 12 13 14 14 14 14 13 12 11 10 9 9 8 7 7 6 6 6 6 6 6 7 7 7 7 7 8 9 10 10 10 10 11 11 11 11 11 11
10 9 10 11 11 12 13 14 14 14 14 13 12 12 11 10 9 8 8 8 7 7 7 7 8 8 8 9 9 9 9 10 11 11 11 11 11 12 13 13 13 13 13
10 10 10 10 11 12 13 14 14 14 15 14 13 12 12 11 10 9 9 9 8 8 9 9 9 10 11 12 13 13 12 13 13 13 13 13 13 14 15 15 15 15 15
11 11 11 11 11 13 13 14 15 15 15 14 13 13 13 12 12 11 11 10 10 10 10 11 12 13 14 15 16 16 16 16 16 15 15 16 15 16 17 17 18 18 17
12 12 13 12 12 13 14 14 15 15 15 15 14 14 14 14 13 13 12 12 12 12 13 13 15 16 16 17 18 19 19 19 18 18 18 19 18 19 19 20 20 20 20
14 14 14 13 13 14 14 15 15 16 16 16 15 15 15 15 14 14 14 14 14 15 15 16 17 17 18 20 21 21 22 21 20 21 21 21 22 21 21 22 22 23 23
16 16 16 14 15 15 15 16 16 16 16 16 16 16 16 16 16 15 16 16 16 17 18 19 20 20 20 21 23 23 23 23 22 22 23 23 23 23 24 24 25 25 25
19 19 19 18 17 17 17 17 17 17 17 17 17 17 17 17 17 17 18 18 19 20 21 21 22 22 22 23 24 24 23 23 23 23 24 24 25 24 25 26 26 27 27
22 23 24 21 19 19 19 19 18 18 18 18 18 19 19 19 19 19 20 20 21 22 24 24 25 24 24 25 25 25 24 24 24 24 24 24 25 25 26 28 29 30 30
27 27 26 23 21 20 20 20 20 19 20 20 19 19 19 20 21 21 22 23 24 25 26 27 28 27 26 25 25 24 24 24 25 25 25 25 26 27 28 28 30 31 32
32 31 27 25 24 23 22 22 22 21 20 20 20 20 21 22 23 25 25 25 26 27 27 26 26 26 26 25 25 25 24 25 25 25 25 26 28 28 29 30 32 33 34
33 31 30 27 25 24 25 24 22 21 20 21 21 22 23 24 25 25 26 27 28 29 27 27 27 27 26 27 28 26 26 26 26 26 26 27 28 30 31 32 33 35 37
31 31 30 29 28 27 26 25 25 24 24 24 24 25 25 26 26 27 28 29 29 28 27 27 28 28 27 26 27 27 26 26 27 27 28 30 31 32 34 36 37 38 40
33 34 32 30 29 27 26 27 27 27 26 25 26 27 26 26 26 27 28 29 29 27 26 25 26 26 26 26 26 27 27 28 28 30 31 32 34 36 38 39 42 43 44
33 31 30 29 28 27 27 28 28 28 27 27 27 27 26 27 28 28 29 28 28 27 26 25 25 26 27 28 28 29 29 31 31 32 33 34 36 38 40 42 44 45 47

GEFSSE_500_meanwind_066.txt.gz
Wind_Speed
5 5 5 6 6 6 6 5 4 4 4 3 3 3 3 3 4 5 5 6 7 8 9 9 9 9 8 8 8 8 8 8 8 8 8 8 8 7 7 7 7 7 7
5 5 5 6 7 7 7 6 5 5 5 5 5 5 5 5 5 5 5 6 7 8 8 8 8 8 8 7 7 7 7 7 8 8 8 7 7 7 7 7 7 7 7
6 5 5 6 7 7 7 7 7 7 7 7 6 6 6 6 5 5 5 6 6 7 7 7 7 7 6 6 6 7 7 7 8 8 7 7 7 7 7 7 7 7 7
8 7 7 8 8 8 8 8 8 8 8 8 8 7 7 6 6 6 6 5 5 5 6 6 5 5 5 5 5 6 6 7 7 7 7 7 7 7 8 7 7 7 7
10 9 9 10 10 9 9 9 9 9 9 9 9 8 8 7 7 6 5 5 5 5 5 5 4 4 4 5 5 5 6 6 7 8 8 8 8 8 8 8 8 8 8
11 11 11 11 11 11 10 10 10 10 10 10 10 10 9 8 7 6 5 5 4 4 4 4 4 3 4 4 4 5 5 6 7 8 8 8 8 8 8 8 8 8 9
12 12 12 12 12 12 11 11 11 11 11 11 10 10 9 9 8 7 6 5 4 4 4 4 3 3 4 4 4 4 5 5 7 7 8 8 8 8 8 8 8 8 9
14 13 13 13 13 12 12 12 12 12 12 11 11 11 10 9 8 7 6 6 5 5 5 5 4 4 4 4 4 4 5 5 6 7 8 8 9 9 8 9 8 9 9
15 14 13 13 13 13 13 12 13 13 13 12 12 11 11 10 9 8 7 7 7 6 6 6 5 5 5 5 5 5 5 6 7 7 8 8 8 9 9 9 9 8 9
16 14 14 13 13 13 13 13 13 14 13 13 13 12 12 11 10 9 9 8 8 7 7 6 6 6 6 6 6 6 6 7 7 8 9 9 9 9 9 9 9 9 9
16 14 14 13 13 13 13 13 14 14 14 13 13 13 13 12 12 11 10 10 9 9 8 8 7 7 7 7 7 7 8 8 8 9 10 10 10 10 10 10 10 10 10
17 15 13 13 13 13 13 13 14 14 14 14 14 14 14 13 13 12 11 11 11 10 10 10 9 9 8 8 9 9 9 10 10 10 11 11 11 11 12 12 12 12 12
15 16 15 14 14 13 13 13 14 15 15 15 15 15 15 15 14 14 13 12 12 12 11 11 11 10 10 10 10 11 11 11 12 12 13 13 13 13 13 14 14 14 14
16 16 17 15 15 14 14 14 14 15 15 16 16 16 16 16 15 15 14 14 14 13 13 13 12 12 11 11 11 12 13 13 14 14 15 16 16 15 15 16 16 17 17
15 17 17 16 15 15 14 14 15 15 16 16 16 16 17 17 17 16 16 15 15 15 15 14 14 13 12 12 12 13 14 15 16 17 17 18 18 18 18 18 19 19 19
17 18 18 16 16 15 15 15 16 16 16 17 17 17 18 18 18 18 17 17 17 17 16 16 16 15 14 14 15 15 16 17 18 19 19 19 18 19 20 21 21 21 22
16 18 18 16 16 16 16 16 16 17 17 17 19 19 19 19 19 19 19 19 19 19 18 18 17 17 17 17 17 17 18 19 19 20 20 20 20 20 21 22 23 23 24
17 18 18 18 18 18 18 18 18 18 18 19 20 21 21 21 21 21 20 20 20 20 19 19 19 19 19 20 19 19 19 20 21 21 22 22 22 22 22 22 23 24 25
18 20 20 20 21 20 20 19 19 19 20 21 22 22 23 23 23 22 22 21 21 21 20 20 20 21 21 22 22 22 22 22 23 23 24 24 24 23 23 24 24 25 27
21 22 21 21 21 22 21 21 22 21 22 23 23 24 25 25 24 24 23 23 22 23 23 23 23 23 24 24 24 25 25 24 24 25 25 25 25 25 25 26 26 26 28
24 24 23 23 24 22 22 23 23 25 26 26 25 25 25 25 25 25 26 26 25 25 25 25 24 25 26 26 26 26 27 27 26 25 26 26 27 27 28 28 29 29 30
25 25 25 26 26 24 23 23 25 26 28 28 27 27 27 27 28 29 29 28 28 28 27 27 26 26 27 28 29 28 27 27 27 27 28 29 29 30 30 31 32 33 33
28 27 26 27 28 26 26 27 28 29 29 29 29 29 28 29 30 31 30 29 29 29 28 28 27 27 28 29 30 29 27 27 28 29 30 30 31 32 33 35 35 35 36
30 29 28 28 29 28 29 30 31 31 30 31 32 32 31 30 30 30 30 30 29 29 30 30 29 28 28 27 29 29 28 28 27 28 29 31 32 33 34 35 36 37 38
29 29 28 28 28 29 30 31 31 30 30 32 31 32 32 32 31 31 30 31 30 29 29 29 27 26 26 26 27 28 29 28 28 29 30 31 33 34 36 37 38 39 40
28 29 28 28 28 29 29 30 30 30 30 31 32 33 32 33 32 32 32 32 31 30 29 27 27 26 26 26 27 27 28 29 30 32 32 33 35 37 38 39 40 42 43

GEFSSE_500_meanwind_072.txt.gz
Wind_Speed
13 14 14 14 13 11 10 10 9 9 9 9 8 7 6 6 5 4 4 3 2 1 1 2 2 3 3 4 4 4 5 5 6 6 6 6 5 5 4 4 4 4 4
15 16 16 16 15 13 12 11 10 10 10 9 9 8 7 6 5 5 4 4 3 3 3 3 3 3 3 4 4 4 5 5 5 6 6 5 5 5 4 4 4 4 5
16 17 17 17 16 15 13 12 11 11 11 10 9 9 8 7 6 6 6 5 4 4 4 4 4 4 4 4 4 4 4 4 5 5 5 5 5 5 4 4 5 5 5
16 17 18 17 17 16 14 14 13 13 12 12 11 10 9 8 8 7 7 6 6 5 5 5 4 4 4 3 3 3 4 4 4 4 4 5 5 5 5 5 5 5 6
16 18 19 18 17 16 15 15 15 14 14 13 12 11 10 9 9 9 8 7 7 6 6 6 5 5 4 3 3 3 3 4 4 4 4 5 5 5 5 5 6 6 6
17 19 21 20 19 18 17 16 16 16 15 14 13 12 11 11 10 10 9 9 8 8 7 7 6 5 5 4 4 3 3 4 4 5 5 5 5 6 6 6 6 6 7
17 19 20 20 19 19 18 18 17 17 16 15 15 14 13 12 12 11 11 10 10 9 8 8 7 6 6 5 4 4 3 4 4 5 5 5 6 6 6 7 7 7 7
18 18 19 20 20 20 20 19 18 18 17 16 16 15 14 14 13 13 12 12 11 10 10 9 8 7 6 6 5 4 4 4 5 5 6 6 6 6 6 7 7 7 7
18 18 19 21 21 21 21 21 20 19 18 18 17 16 16 15 14 14 13 13 12 12 11 10 10 9 8 7 6 6 5 5 6 6 7 7 7 7 7 7 7 7 7
18 19 20 21 22 22 23 22 21 20 20 19 18 17 17 16 16 15 14 14 13 13 12 11 11 10 9 9 8 7 7 7 7 7 8 8 9 9 9 9 9 8 8
19 19 19 22 23 23 23 24 23 22 21 20 19 18 18 17 17 16 16 15 14 14 14 13 12 11 11 10 9 9 9 9 9 9 9 9 10 10 10 10 10 10 10
20 20 21 22 23 23 24 25 24 22 21 20 20 19 19 19 18 17 17 16 16 15 15 14 13 13 12 12 11 11 11 11 11 11 11 11 11 12 12 12 12 12 12
22 21 21 22 23 24 25 25 25 23 22 22 21 21 20 20 19 19 18 18 17 17 16 15 15 14 14 13 13 13 13 13 13 13 13 13 13 14 14 14 14 14 14
22 23 23 24 25 25 25 25 25 24 23 23 22 21 21 21 20 20 19 19 18 18 18 17 16 16 15 15 15 15 15 15 15 15 15 15 15 15 16 16 16 16 16
23 25 26 26 26 26 25 26 25 24 24 23 23 22 22 22 21 21 21 20 20 20 19 19 18 18 17 17 17 17 17 17 17 16 17 17 17 17 17 17 17 18 18
24 26 26 28 27 28 27 27 26 25 24 23 22 23 23 23 22 22 22 22 22 21 21 20 20 20 20 19 19 19 19 19 19 19 19 19 18 18 18 18 19 19 20
25 25 25 26 28 29 28 28 27 26 26 24 24 24 25 24 24 24 24 24 24 23 22 22 21 21 21 21 20 21 21 21 21 21 21 21 20 20 20 20 21 21 22
25 25 26 26 27 29 29 28 28 27 26 25 25 25 26 25 26 26 26 26 25 25 24 24 24 23 23 23 23 23 23 23 23 23 23 23 23 23 23 23 23 23 24
26 26 27 27 28 28 29 29 28 27 26 26 26 27 27 26 27 27 27 27 27 26 26 26 25 25 25 25 25 25 25 25 26 26 26 26 26 26 26 26 25 25 26
29 28 28 27 27 26 26 27 27 27 26 27 27 28 28 27 28 29 28 28 28 27 26 26 27 27 27 28 28 28 28 28 28 28 28 28 29 29 29 28 28 28 28
31 28 27 28 25 24 24 25 25 27 27 27 27 28 29 29 29 30 29 30 30 29 29 29 29 29 30 30 30 30 29 29 29 30 30 31 31 31 31 31 32 31 32
32 29 27 26 24 23 23 23 24 24 25 27 28 29 30 31 32 32 32 32 31 31 31 31 31 31 32 31 31 30 30 30 30 31 32 33 33 34 34 33 34 34 35
34 31 29 27 25 24 24 23 24 24 25 26 26 28 31 33 33 34 33 33 33 33 32 32 33 33 32 33 32 31 31 32 32 32 33 33 34 34 35 35 36 37 38
34 33 30 28 27 26 25 25 26 25 25 26 28 28 29 31 32 34 34 33 33 33 33 34 34 33 32 33 32 32 32 32 33 33 33 33 35 36 37 37 38 39 40
34 33 31 31 30 28 28 28 28 27 27 27 28 28 29 30 32 33 34 35 35 35 36 37 36 35 34 34 34 33 34 34 35 35 35 35 36 37 38 38 39 41 42
34 33 33 32 32 31 30 29 28 29 28 27 27 26 27 30 32 34 34 35 36 36 36 37 36 36 35 34 34 33 32 33 33 34 34 34 35 37 38 39 41 43 45

GEFSSE_500_meanwind_078.txt.gz
Wind_Speed
13 13 13 14 14 14 14 13 12 12 12 12 12 11 11 11 10 10 9 8 8 7 6 5 4 3 3 2 2 2 3 3 4 5 5 5 4 4 4 3 3 3 3
14 15 15 16 16 16 16 15 14 13 13 13 13 12 12 12 11 11 10 9 8 8 7 5 4 4 3 2 2 2 3 3 4 4 5 5 4 4 4 3 3 4 3
15 16 17 17 18 18 17 17 15 15 14 14 14 14 14 13 12 12 11 10 9 8 7 6 5 5 4 3 3 3 3 3 4 4 4 4 4 5 4 4 4 4 4
15 17 18 19 20 20 19 19 18 16 15 15 15 15 15 14 13 13 12 11 10 9 8 7 6 6 5 4 3 3 3 3 3 4 4 4 5 5 4 5 5 5 4
16 18 19 19 20 21 21 20 19 19 17 16 16 16 16 15 14 13 13 12 10 9 8 8 7 6 5 4 3 3 3 3 3 3 4 4 5 5 5 5 5 5 5
17 18 20 20 20 20 21 21 20 20 19 18 17 17 16 16 15 14 14 12 11 10 9 8 8 7 6 5 5 4 4 3 2 3 3 4 5 5 5 5 5 5 5
18 18 19 20 21 20 21 21 20 20 20 19 19 18 18 17 16 15 15 13 12 11 10 9 9 8 7 7 6 5 4 3 3 3 3 4 4 5 5 5 6 5 5
17 18 18 19 20 19 20 21 20 20 20 20 19 19 19 18 17 16 16 14 13 12 11 11 10 9 8 8 7 6 5 4 3 3 4 5 5 6 6 6 6 6 6
18 17 18 18 19 20 21 22 21 21 21 21 20 20 19 19 19 18 17 16 14 13 13 12 11 10 10 9 8 8 7 6 5 4 4 6 6 7 7 7 7 7 7
20 19 20 19 19 20 22 23 23 22 22 22 21 21 20 20 19 19 18 17 16 15 14 13 12 11 11 10 10 9 8 8 7 7 6 7 8 8 8 8 8 8 8
21 20 20 20 21 21 23 24 24 24 22 22 22 21 21 21 20 20 19 18 17 16 16 15 14 13 12 12 11 11 10 9 9 8 8 9 9 9 10 10 10 10 10
22 21 21 21 22 23 24 24 25 25 23 23 23 23 22 22 22 21 20 20 19 18 17 16 15 14 14 13 13 12 12 11 11 9 10 11 11 11 11 12 12 12 12
25 23 21 22 23 25 24 24 25 25 25 24 25 24 24 23 22 22 22 21 20 19 18 18 17 16 16 15 14 14 14 13 12 11 11 12 13 13 13 13 13 14 13
27 25 24 23 24 24 25 25 25 25 25 25 25 26 25 24 23 23 23 22 21 21 20 19 19 18 17 17 16 15 15 15 15 13 13 14 15 15 15 15 15 15 15
28 28 26 25 25 25 25 25 26 26 26 26 26 26 26 25 25 24 23 23 23 22 21 20 20 20 19 18 17 17 17 17 17 16 16 16 16 17 17 17 17 16 16
30 29 27 27 26 27 27 26 27 28 28 27 27 26 27 26 25 25 25 24 23 23 22 22 22 21 21 20 20 19 19 19 19 19 19 18 19 19 19 19 19 18 19
31 31 29 29 28 27 27 28 29 29 29 29 28 28 27 27 26 26 26 25 24 23 23 23 23 22 22 22 21 21 21 21 21 21 21 20 21 21 21 21 21 21 21
31 30 30 29 28 28 28 29 29 30 29 29 28 28 27 27 26 26 27 26 25 24 24 24 23 23 23 23 23 23 23 23 24 23 23 23 24 24 23 23 23 24 24
33 31 31 31 30 30 30 29 29 30 30 30 30 29 29 28 28 27 27 26 26 26 25 25 24 24 24 25 25 25 25 25 26 26 26 27 27 27 26 26 26 27 27
34 34 34 32 31 31 31 30 29 29 29 30 31 30 29 29 30 29 27 26 27 27 26 26 26 25 26 26 26 26 26 27 27 28 29 30 30 29 29 29 29 29 29
35 35 35 33 32 31 31 30 29 27 28 30 30 29 28 28 29 29 28 29 28 28 28 28 27 27 27 28 28 28 28 29 29 30 30 31 31 31 31 31 31 31 31
34 35 35 34 33 32 31 30 27 28 28 26 26 27 27 27 28 28 28 28 29 30 29 29 30 30 30 31 31 31 30 31 31 31 32 32 32 32 33 33 34 34 35
34 34 35 34 34 33 32 31 28 25 23 23 23 24 24 26 26 28 29 29 29 30 31 31 32 32 32 32 32 33 33 33 32 32 33 34 34 34 34 34 35 36 36
33 34 34 34 34 32 31 29 28 25 24 23 23 22 24 25 24 25 26 28 28 30 31 32 32 32 32 33 34 35 35 34 34 34 34 35 35 36 36 36 37 37 37
33 34 34 34 34 31 30 29 28 27 24 23 21 21 22 23 24 23 24 26 29 31 32 32 32 33 33 34 34 35 35 35 36 37 36 36 37 38 39 40 40 40 41
32 33 33 35 35 31 30 30 29 28 25 23 22 21 22 23 23 23 24 25 28 31 32 33 34 34 35 36 35 35 36 36 37 38 38 38 39 39 40 41 41 43 43